Location: Klein M�hlingen
(51.9472°N, 11.7453°E)
Time: 03:58:16
(UTC+00:00)

ERBS - Pass Details

Date: 09 April 2020
Orbit: 409 x 427 km, 57.0° (Epoch: 06 June)

Event Time Altitude Azimuth Distance (km) Brightness Sun altitude
Rises 20:08:17 0° 296° (WNW) 2,400 7.6 -18.1°
Reaches altitude 10° 20:10:31 10° 287° (WNW) 1,530 6.1 -18.4°
Maximum altitude 20:13:37 32° 222° (SW) 753 3.5 -18.7°
Enters shadow 20:14:01 31° 206° (SSW) 772 3.4 -18.8°
